Location: ??????????
(42.1626°N, 44.1160°E)
Time: 14:00:14
(UTC+00:00)

Cosmos 1933 Rocket - Pass Details

Date: 03 March 2021
Orbit: 607 x 630 km, 82.5° (Epoch: 20 April)

Event Time Altitude Azimuth Distance (km) Brightness Sun altitude
Rises 15:40:34 0° 167° (SSE) 2,855 6.8 -9.1°
Reaches altitude 10° 15:42:53 10° 159° (SSE) 1,958 5.9 -9.5°
Maximum altitude 15:46:53 37° 91° (E) 951 4.0 -10.2°
Drops below altitude 10° 15:50:56 10° 24° (NNE) 1,985 5.9 -11.0°
Sets 15:53:17 0° 17° (NNE) 2,900 6.8 -11.4°
